[Date Prev][Date Next][Thread Prev][Thread Next] - [Date Index][Thread Index][Author Index]

2 Line ISS Keps 12-26 [ update]



ISS
1 25544U 98067A   04361.50756131  .00020342  00000-0  15756-3 0  4489
2 25544  51.6397  63.9327 0003856 136.5124 311.7664 15.71831465348539
----
Via the sarex mailing list at AMSAT.ORG courtesy of AMSAT-NA.
To unsubscribe, send "unsubscribe sarex" to Majordomo@amsat.org



AMSAT Top AMSAT Home